Back to catalog

COSMOS 1275 DEB

AlivePO
NORAD 12949·DEBRIS·🇷🇺 Russia

Launched Jun 4, 1981 from Plesetsk Cosmodrome

Loading…

Next Passes (next 24 hours)

TLE

FreshSource: Space-Track

Epoch: Sep 14, 2026, 06:59 UTC

1 12949U 81053ED  26257.29133750  .00000551  00000-0  38442-3 0  9999
2 12949  82.8406 100.0544 0032440 165.4171 246.9266 13.96691702273233

Track COSMOS 1275 DEB in real time with AllMySat

Download on the App Store